EC2UT-13 Weather Reports


Display with metric or nautical units.
time (UTC)temp
F
wind
direction
speed
MPH
gust
MPH
rain 1hr
in
rain 24hr
in
rain mn
in
humidity
%
barometer
mb
20260508043517 51 45 4.0 5.0 0.00 0.06 0.00 69 1012.7
20260508042516 51 68 2.0 5.0 0.00 0.06 0.00 69 1013.0
20260508041516 51 45 3.0 5.0 0.00 0.06 0.00 69 1012.9
20260508040516 51 45 3.0 6.0 0.00 0.06 0.00 69 1013.1
20260508035516 51 68 2.0 4.0 0.00 0.06 0.00 69 1013.1
20260508034516 51 45 1.0 4.0 0.00 0.06 0.00 69 1013.4
20260508033536 51 0.0 3.0 0.00 0.06 0.00 69 1013.3
20260508032516 51 45 2.0 4.0 0.00 0.06 0.00 69 1013.4
20260508031516 51 45 2.0 4.0 0.00 0.06 0.00 68 1013.5
20260508030516 52 0.0 2.0 0.00 0.06 0.00 69 1013.5
20260508025536 52 45 2.0 4.0 0.00 0.06 0.00 69 1013.5
20260508024516 53 68 1.0 3.0 0.00 0.06 0.00 69 1013.6
20260508023516 53 68 2.0 4.0 0.00 0.06 0.00 70 1013.6
20260508022516 52 90 2.0 4.0 0.00 0.06 0.00 70 1013.8
20260508021536 52 90 2.0 6.0 0.00 0.06 0.00 70 1013.8
20260508020536 52 68 4.0 6.0 0.00 0.06 0.00 68 1013.8
20260508015516 52 45 4.0 6.0 0.00 0.06 0.00 68 1013.9
20260508014536 53 68 4.0 7.0 0.00 0.06 0.00 68 1013.9
20260508013516 54 90 1.0 3.0 0.00 0.06 0.00 67 1013.8
20260508012515 54 90 2.0 3.0 0.00 0.06 0.00 66 1014.0
20260508011518 54 113 1.0 4.0 0.00 0.06 0.00 66 1014.1
20260508010518 54 113 1.0 4.0 0.00 0.06 0.00 66 1014.2
20260508005518 54 90 1.0 3.0 0.00 0.06 0.00 66 1014.3
20260508004518 54 90 1.0 2.0 0.00 0.06 0.00 65 1014.3
20260508003518 54 90 2.0 6.0 0.00 0.06 0.00 64 1014.3
20260508002517 55 0.0 2.0 0.00 0.06 0.00 64 1014.3
20260508001518 55 0.0 1.0 0.00 0.06 0.00 64 1014.2
20260508000518 55 0.0 0.0 0.00 0.06 0.00 64 1014.2
20260507235538 55 0.0 0.0 0.00 0.06 0.06 63 1014.3
20260507234516 55 0.0 0.0 0.00 0.06 0.06 64 1014.3
20260507233517 55 158 1.0 3.0 0.00 0.06 0.06 64 1014.2
20260507232557 55 158 1.0 4.0 0.00 0.06 0.06 64 1014.2
20260507231518 55 158 1.0 3.0 0.00 0.06 0.06 64 1014.3
20260507230517 55 180 1.0 5.0 0.00 0.06 0.06 64 1014.2
20260507225518 55 0.0 2.0 0.00 0.06 0.06 64 1014.0
20260507224518 55 0.0 2.0 0.00 0.06 0.06 63 1014.1
20260507223518 55 0.0 0.0 0.00 0.06 0.06 62 1014.1
20260507222517 55 0.0 0.0 0.00 0.06 0.06 62 1013.9
20260507221518 55 0.0 2.0 0.00 0.06 0.06 62 1013.9
20260507220537 55 45 3.0 5.0 0.00 0.06 0.06 62 1013.8
20260507215517 55 45 5.0 9.0 0.00 0.06 0.06 63 1013.9
20260507214518 56 68 1.0 3.0 0.00 0.06 0.06 63 1013.8
20260507213518 56 68 4.0 7.0 0.00 0.06 0.06 62 1013.8
20260507212517 56 68 4.0 7.0 0.00 0.06 0.06 61 1013.6
20260507211558 56 45 5.0 7.0 0.00 0.06 0.06 60 1013.6
20260507210518 58 45 3.0 5.0 0.00 0.06 0.06 57 1013.3
20260507205518 58 315 2.0 4.0 0.00 0.06 0.06 56 1013.2
20260507204518 58 0.0 3.0 0.00 0.06 0.06 56 1013.0
20260507203517 58 0.0 0.0 0.00 0.06 0.06 56 1013.0
20260507202537 58 158 1.0 2.0 0.00 0.06 0.06 55 1013.0
20260507201517 58 180 1.0 4.0 0.00 0.06 0.06 55 1012.8
20260507200517 58 158 3.0 5.0 0.00 0.06 0.06 56 1012.8
20260507195517 58 0.0 3.0 0.00 0.06 0.06 58 1012.7
20260507193517 57 180 1.0 4.0 0.00 0.06 0.06 60 1012.9
20260507192538 57 180 1.0 3.0 0.01 0.06 0.06 60 1012.7
20260507191517 57 180 1.0 4.0 0.01 0.06 0.06 60 1012.9
20260507190517 57 180 1.0 5.0 0.01 0.06 0.06 60 1012.8
20260507185517 57 0.0 2.0 0.02 0.06 0.06 60 1012.8
20260507184517 57 135 2.0 4.0 0.02 0.06 0.06 60 1012.8
20260507183517 57 135 2.0 7.0 0.02 0.06 0.06 60 1012.7
20260507182518 57 0.0 3.0 0.01 0.05 0.05 61 1012.8
20260507181538 57 0.0 4.0 0.01 0.05 0.05 61 1012.8
20260507180517 57 90 2.0 7.0 0.01 0.05 0.05 60 1012.7
20260507175517 57 68 3.0 8.0 0.00 0.04 0.04 60 1012.7
20260507174537 57 90 3.0 9.0 0.00 0.04 0.04 59 1012.5
20260507173517 57 113 3.0 6.0 0.00 0.04 0.04 60 1012.7
20260507172517 57 68 5.0 9.0 0.01 0.04 0.04 59 1012.4
20260507171517 58 68 4.0 9.0 0.01 0.04 0.04 59 1012.5
20260507170517 58 68 5.0 11.0 0.01 0.04 0.04 59 1012.5
20260507165517 58 113 4.0 8.0 0.02 0.04 0.04 58 1012.6
20260507164517 58 180 3.0 8.0 0.02 0.04 0.04 58 1012.4
20260507163517 58 180 7.0 13.0 0.03 0.04 0.04 57 1012.2
20260507162517 59 135 6.0 12.0 0.02 0.03 0.03 57 1012.2
20260507161517 60 180 6.0 11.0 0.02 0.03 0.03 55 1012.2
20260507160557 60 180 6.0 10.0 0.02 0.03 0.03 55 1012.1
20260507155518 60 180 3.0 8.0 0.02 0.02 0.02 53 1012.0
20260507154517 61 158 2.0 5.0 0.02 0.02 0.01 54 1011.8
20260507153517 61 315 4.0 7.0 0.01 0.01 0.01 54 1011.3
20260507152517 61 270 6.0 13.0 0.01 0.01 0.01 53 1011.0
20260507151517 60 248 8.0 15.0 0.01 0.01 0.01 55 1011.0
20260507150516 60 293 7.0 15.0 0.01 0.01 0.01 56 1011.2
20260507145517 61 180 7.0 15.0 0.00 0.00 0.00 54 1011.4
20260507144517 63 180 6.0 20.0 0.00 0.00 0.00 50 1011.6
20260507143517 64 180 8.0 17.0 0.00 0.00 0.00 48 1011.8
20260507142516 70 203 3.0 12.0 0.00 0.00 0.00 35 1011.8
20260507141517 70 158 1.0 5.0 0.00 0.00 0.00 34 1011.7
20260507140538 70 0.0 0.0 0.00 0.00 0.00 34 1012.0
20260507135558 70 0.0 2.0 0.00 0.00 0.00 35 1011.8
20260507134517 70 135 1.0 3.0 0.00 0.00 0.00 36 1011.8
20260507133517 69 158 2.0 6.0 0.00 0.00 0.00 36 1011.9
20260507132516 69 180 4.0 11.0 0.00 0.00 0.00 37 1011.9
20260507131516 69 135 4.0 11.0 0.00 0.00 0.00 36 1011.9
20260507130517 70 158 4.0 11.0 0.00 0.00 0.00 34 1012.1
20260507125517 71 90 5.0 14.0 0.00 0.00 0.00 38 1012.2
20260507124517 70 158 5.0 14.0 0.00 0.00 0.00 36 1012.2
20260507123517 69 90 3.0 10.0 0.00 0.00 0.00 37 1012.1
20260507122517 69 135 6.0 17.0 0.00 0.00 0.00 40 1012.1
20260507121517 68 113 6.0 13.0 0.00 0.00 0.00 39 1012.1
20260507120516 68 68 4.0 11.0 0.00 0.00 0.00 43 1012.3
20260507115537 68 90 4.0 11.0 0.00 0.00 0.00 41 1012.6
20260507114517 67 113 3.0 10.0 0.00 0.00 0.00 43 1012.9
20260507113517 66 68 3.0 9.0 0.00 0.00 0.00 45 1013.0
20260507112516 65 113 3.0 10.0 0.00 0.00 0.00 46 1013.3
20260507111517 65 90 4.0 10.0 0.00 0.00 0.00 45 1013.6
20260507110517 65 113 4.0 10.0 0.00 0.00 0.00 44 1013.6
20260507105537 65 113 2.0 6.0 0.00 0.00 0.00 44 1013.9
20260507104516 64 90 2.0 7.0 0.00 0.00 0.00 45 1014.1
20260507103516 63 113 3.0 8.0 0.00 0.00 0.00 46 1014.1
20260507102516 62 113 2.0 7.0 0.00 0.00 0.00 47 1014.1
20260507101517 62 113 5.0 11.0 0.00 0.00 0.00 46 1014.2
20260507100517 62 180 2.0 8.0 0.00 0.00 0.00 47 1014.2
20260507095536 63 90 2.0 7.0 0.00 0.00 0.00 44 1014.4
20260507094516 61 180 1.0 4.0 0.00 0.00 0.00 46 1014.4
20260507093517 59 113 1.0 3.0 0.00 0.00 0.00 47 1014.5
20260507092516 58 0 2.0 4.0 0.00 0.00 0.00 49 1014.6
20260507091516 57 45 2.0 6.0 0.00 0.00 0.00 50 1014.5
20260507090516 56 338 2.0 4.0 0.00 0.00 0.00 51 1014.7
20260507085516 56 338 2.0 4.0 0.00 0.00 0.00 51 1014.6
20260507084517 55 0.0 2.0 0.00 0.00 0.00 53 1014.8
20260507083537 54 45 2.0 4.0 0.00 0.00 0.00 54 1014.8
20260507082556 53 0 1.0 4.0 0.00 0.00 0.00 56 1014.8
20260507081516 52 45 2.0 3.0 0.00 0.00 0.00 57 1014.8
20260507080516 51 23 3.0 5.0 0.00 0.00 0.00 57 1014.8
20260507075517 51 23 2.0 4.0 0.00 0.00 0.00 57 1014.9
20260507074516 51 45 5.0 7.0 0.00 0.00 0.00 57 1014.9
20260507073516 51 68 5.0 6.0 0.00 0.00 0.00 56 1014.9
20260507072516 51 68 3.0 7.0 0.00 0.00 0.00 56 1015.0
20260507071516 51 45 3.0 5.0 0.00 0.00 0.00 55 1014.9
20260507070516 51 338 1.0 3.0 0.00 0.00 0.00 56 1014.9
20260507065516 51 45 2.0 3.0 0.00 0.00 0.00 56 1015.0
20260507064517 51 45 2.0 4.0 0.00 0.00 0.00 56 1014.9
20260507063516 50 338 3.0 6.0 0.00 0.00 0.00 57 1014.7
20260507062516 50 0 4.0 7.0 0.00 0.00 0.00 57 1014.7
20260507061537 50 0 3.0 5.0 0.00 0.00 0.00 58 1014.8
20260507060516 50 0 3.0 5.0 0.00 0.00 0.00 58 1014.7
20260507055517 50 338 3.0 4.0 0.00 0.00 0.00 58 1014.6
20260507054516 50 338 4.0 6.0 0.00 0.00 0.00 58 1014.5
20260507053536 50 0 2.0 5.0 0.00 0.00 0.00 58 1014.4
20260507052516 49 338 3.0 5.0 0.00 0.00 0.00 58 1014.4
20260507051516 50 338 5.0 8.0 0.00 0.00 0.00 58 1014.3
20260507050516 50 0 3.0 8.0 0.00 0.00 0.00 59 1014.3
20260507045516 50 23 4.0 6.0 0.00 0.00 0.00 58 1014.1
20260507044516 50 0 5.0 8.0 0.00 0.00 0.00 58 1014.2